Погода в Мане

Кот-д’Ивуар     7°24′20″N   7°33′13″W
темп.,
°C
ветер,
м/с
пор.,
м/с
влажн.,
%
обл.,
%
осадки,
мм/ч
давл.,
гПа
погр.,
м
1 августа, вс
вс100:00+20юз1999100 11.3 1017533
03:00+20юз1799100 9.5 1015474
06:00+20юз13100100 10.8 1017135
09:00+21юз129997 0.6 1018226
12:00+23юз149560 3.4 1017623
15:00+24юз148452 2.3 1014788
18:00+23юз139133 4.0 1015309
21:00+20зюз119977 0.1 101827
2 августа, пн
пн200:00+20зюз1110084 0.2 101831
03:00+20юз149990 0.0 1016267
06:00+20юз139994 0.2 1017206
09:00+22юз138944 0.1 1018488
12:00+26ююз236462 0.4 10171262
15:00+27ююз336084 0.3 10141424
18:00+25юз137284 0.4 1014193
21:00+21ссз118454 0.0 101713
3 августа, вт
вт300:00+20зсз118613 0.0 101717
03:00+18зюз119442 0.0 101528
06:00+18з119953 0.0 101647
09:00+22юз127968 0.0 1018552
12:00+28ююз225776 0.1 10161549
15:00+25ююв018547 1.6 1015523
18:00+22зюз0195100 4.1 101514
21:00+20зюз019879 0.3 101711
4 августа, ср
ср400:00+20сз1198100 0.6 101737
03:00+19з1198100 0.0 101635
06:00+19з1198100 0.0 101629
09:00+23юз1184100 0.0 1018479
12:00+26ююз1271100 0.6 10171060
15:00+24зюз138991 2.9 1015536
18:00+22ююз129787 6.4 101684
21:00+20зюз119879 0.5 101924
5 августа, чт
чт500:00+19зюз129922 0.5 101944
03:00+19зюз1110077 0.0 101758
06:00+19зюз1210078 0.0 1018105
09:00+21ююз129289 0.1 1019429
12:00+25ююз116890 0.3 1018992
15:00+25ююз236885 0.2 1016845
18:00+24ююз257716 0.4 1016482
21:00+20зюз12955 0.0 101844